Location: Brunsbüttel
(52.3892°N, 10.6138°E)
Time: 21:14:21
(UTC+00:00)

Cosmos 2219 Rocket - Pass Details

Date: 19 May 2025
Orbit: 828 x 844 km, 71.0° (Epoch: 15 June)

Event Time Altitude Azimuth Distance (km) Brightness Sun altitude
Rises 22:19:32 0° 329° (NNW) 3,402 6.8 -16.7°
Reaches altitude 10° 22:22:09 10° 337° (NNW) 2,462 5.9 -16.8°
Maximum altitude 22:27:28 40° 47° (NE) 1,213 3.3 -16.9°
Enters shadow 22:32:35 11° 116° (ESE) 2,397 4.2 -17.1°
